EST,Max TemperatureF,Mean TemperatureF,Min TemperatureF,Max Dew PointF,MeanDew PointF,Min DewpointF,Max Humidity, Mean Humidity, Min Humidity, Max Sea Level PressureIn, Mean Sea Level PressureIn, Min Sea Level PressureIn, Max VisibilityMiles, Mean VisibilityMiles, Min VisibilityMiles, Max Wind SpeedMPH, Mean Wind SpeedMPH, Max Gust SpeedMPH,PrecipitationIn, CloudCover, Events, WindDirDegrees
2014-2-1,14,0,-15,9,-6,-21,88,81,73,29.98,29.94,29.86,10,9,1,8,3,,0.00,4,Snow,256
2014-2-2,12,0,-13,7,-1,-19,89,78,57,30.14,30.06,29.95,10,8,2,10,4,,0.00,4,Snow,319
2014-2-3,21,2,-17,9,-7,-24,84,75,45,30.19,30.15,30.11,10,10,10,12,2,,0.00,3,Snow,227
2014-2-4,17,8,0,10,3,-4,92,80,58,30.34,30.28,30.20,10,9,2,13,5,17,0.00,3,Snow,341
2014-2-5,11,6,0,6,1,-4,85,78,72,30.30,30.28,30.25,10,7,0,20,11,25,0.00,7,Snow,2
2014-2-6,12,2,-8,-4,-7,-13,86,72,45,30.24,30.11,29.98,10,10,10,14,6,16,0.00,3,,223
2014-2-7,17,5,-7,-2,-9,-11,84,63,38,30.03,29.95,29.88,10,10,10,18,13,23,0.00,0,,241
2014-2-8,17,3,-11,5,-7,-15,87,67,35,30.09,30.05,30.01,10,10,2,8,4,,0.00,1,Snow,273
2014-2-9,14,4,-5,7,-3,-10,92,81,62,30.15,30.04,29.99,10,8,0,15,3,,0.00,5,Snow,342
2014-2-10,5,-4,-13,-4,-12,-18,85,77,52,30.33,30.21,30.14,10,10,5,9,4,,0.00,4,Snow,303
2014-2-11,14,-2,-18,-2,-12,-24,85,71,48,30.35,30.27,30.10,10,10,10,20,5,24,0.00,1,,204
2014-2-12,20,12,4,10,2,-4,88,74,62,30.09,30.00,29.91,10,8,2,18,13,24,0.00,4,Snow,208
2014-2-13,23,13,3,21,10,0,94,90,85,29.91,29.66,29.41,10,5,0,18,4,25,0.01,5,Snow,180
2014-2-14,19,10,0,18,7,-6,93,84,72,29.86,29.61,29.42,10,4,1,21,8,29,0.01,7,Snow,332
2014-2-15,15,9,3,9,3,-2,92,82,67,29.94,29.91,29.85,10,6,1,13,8,16,0.02,8,Snow,11
2014-2-16,9,-1,-11,7,-1,-17,92,83,72,30.25,30.09,29.92,10,5,1,14,7,,0.00,5,Snow,13
2014-2-17,17,4,-8,16,4,-14,93,87,79,30.22,30.00,29.72,10,6,1,25,6,32,0.00,5,Snow,183
2014-2-18,30,18,7,23,15,5,100,90,75,29.72,29.64,29.53,10,6,0,20,6,24,0.00,4,Fog-Snow,211
2014-2-19,42,29,16,23,19,15,96,77,36,29.82,29.64,29.54,10,8,0,14,4,21,0.00,1,Fog,274
2014-2-20,37,29,21,31,23,16,94,79,60,29.86,29.64,29.09,10,8,0,22,6,75,0.05,5,Snow,136
2014-2-21,34,24,13,32,23,7,100,88,73,29.36,29.02,28.81,10,4,0,30,20,37,0.00,7,Snow,201
2014-2-22,17,12,6,9,5,1,79,73,63,29.76,29.56,29.37,10,10,10,24,17,31,0.00,1,,257
2014-2-23,12,8,5,3,1,-2,80,72,57,29.93,29.85,29.76,10,10,7,20,9,24,0.00,4,,273
2014-2-24,11,6,1,0,-1,-4,84,75,61,30.09,29.99,29.93,10,8,2,14,6,22,0.00,6,Snow,291
2014-2-25,6,0,-4,-1,-5,-10,86,75,56,30.06,30.00,29.94,10,9,4,16,6,22,0.00,5,Snow,276
2014-2-26,10,-2,-13,3,-10,-18,85,70,37,29.97,29.71,29.40,10,8,1,23,9,31,0.00,3,Snow,271
2014-2-27,0,-10,-22,-4,-16,-29,80,66,39,30.07,29.80,29.47,10,6,0,30,14,37,0.00,5,Snow,331
2014-2-28,10,-8,-27,5,-16,-35,85,72,43,30.08,30.00,29.88,10,8,1,20,3,29,0.00,5,Fog-Snow,210